Eastsound, WA
on Wednesday, December 26, 2012

Wednesday
Previous Day Next Day
Daily Summary
 ActualAverage (KBLI)Record (KBLI)
Temperature
Mean Temperature °F 38°F  
Max Temperature 44°F 44°F 63°F (1980)
Min Temperature 39°F 32°F 12°F (1971)
Degree Days
Heating Degree Days 24 27  
Month to date heating degree days 692  
Cooling Degree Days 0 0  
Month to date cooling degree days 0  
Year to date cooling degree days 42  
Moisture
Dew Point 37°F   
Average Humidity 86    
Maximum Humidity 100    
Minimum Humidity 76    
Precipitation
Precipitation 0.00 in 0.13 in 1.34 in (1980)
Month to date precipitation 3.63  
Year to date precipitation 35.24  
Wind
Wind Speed 4 mph   
Max Wind Speed 9 mph   
Max Gust Speed 17 mph   
Visibility 9 miles   
Events Rain   

Key: T is trace of precipitation, MM is missing value
Source: NWS Daily Summary
Time(PST)TemperatureDew PointHumidity Pressure Visibility Wind DirectionWind SpeedGust SpeedPrecipitationEvents Conditions
12:15 AM 41.0°F 35.6°F 81% 29.67 in 10.0 miles SE 3.5 mph - N/A   Overcast
12:35 AM 41.0°F 35.6°F 81% 29.67 in 10.0 miles ESE 3.5 mph - N/A   Overcast
12:55 AM 41.0°F 35.6°F 81% 29.67 in 10.0 miles ENE 5.8 mph - N/A   Overcast
1:15 AM 41.0°F 35.6°F 81% 29.68 in 10.0 miles East 4.6 mph - N/A   Overcast
1:35 AM 41.0°F 35.6°F 81% 29.68 in 10.0 miles East 3.5 mph - N/A   Overcast
2:15 AM 41.0°F 35.6°F 81% 29.69 in 10.0 miles ENE 5.8 mph - N/A   Overcast
2:35 AM 41.0°F 35.6°F 81% 29.69 in 10.0 miles East 4.6 mph - N/A   Overcast
2:55 AM 41.0°F 35.6°F 81% 29.69 in 10.0 miles ENE 4.6 mph - N/A   Overcast
3:15 AM 41.0°F 35.6°F 81% 29.68 in 10.0 miles East 5.8 mph - N/A   Overcast
3:35 AM 41.0°F 35.6°F 81% 29.68 in 10.0 miles ENE 6.9 mph - N/A   Overcast
3:55 AM 41.0°F 35.6°F 81% 29.68 in 10.0 miles ENE 3.5 mph - N/A   Overcast
4:15 AM 41.0°F 35.6°F 81% 29.68 in 10.0 miles East 6.9 mph - N/A   Overcast
4:35 AM 39.2°F 33.8°F 81% 29.68 in 10.0 miles East 5.8 mph - N/A   Overcast
5:15 AM 39.2°F 35.6°F 87% 29.68 in 10.0 miles Calm Calm - N/A   Overcast
5:35 AM 39.2°F 33.8°F 81% 29.69 in 10.0 miles East 6.9 mph - N/A   Overcast
5:55 AM 39.2°F 33.8°F 81% 29.68 in 10.0 miles ENE 8.1 mph - N/A   Overcast
6:15 AM 41.0°F 33.8°F 76% 29.69 in 10.0 miles East 4.6 mph - N/A   Overcast
6:35 AM 39.2°F 33.8°F 81% 29.70 in 10.0 miles East 3.5 mph - N/A   Overcast
6:55 AM 39.2°F 35.6°F 87% 29.70 in 10.0 miles East 6.9 mph - N/A   Overcast
7:15 AM 39.2°F 35.6°F 87% 29.70 in 10.0 miles ENE 9.2 mph - N/A   Overcast
7:35 AM 41.0°F 37.4°F 87% 29.70 in 10.0 miles SSE 4.6 mph - N/A   Overcast
8:15 AM 42.8°F 35.6°F 76% 29.71 in 10.0 miles SE 4.6 mph - N/A   Overcast
8:35 AM 42.8°F 37.4°F 81% 29.71 in 10.0 miles East 5.8 mph - N/A   Overcast
8:55 AM 41.0°F 37.4°F 87% 29.72 in 10.0 miles ESE 3.5 mph - N/A   Overcast
9:15 AM 42.8°F 37.4°F 81% 29.73 in 10.0 miles SSE 5.8 mph - N/A   Overcast
9:35 AM 42.8°F 37.4°F 81% 29.73 in 10.0 miles SE 6.9 mph 17.3 mph N/A   Overcast
9:55 AM 41.0°F 37.4°F 87% 29.74 in 10.0 miles East 8.1 mph - N/A   Overcast
10:15 AM 41.0°F 37.4°F 87% 29.75 in 10.0 miles South 5.8 mph 16.1 mph N/A Rain Light Rain
10:35 AM 41.0°F 37.4°F 87% 29.75 in 10.0 miles Calm Calm - N/A   Overcast
10:55 AM 41.0°F 37.4°F 87% 29.75 in 10.0 miles ESE 6.9 mph - N/A   Overcast
11:15 AM 41.0°F 37.4°F 87% 29.75 in 10.0 miles East 5.8 mph - N/A   Overcast
11:35 AM 41.0°F 37.4°F 87% 29.74 in 10.0 miles ENE 5.8 mph - N/A   Overcast
11:55 AM 41.0°F 37.4°F 87% 29.74 in 10.0 miles NE 5.8 mph - N/A   Overcast
12:15 PM 41.0°F 37.4°F 87% 29.74 in 10.0 miles NE 8.1 mph - N/A   Overcast
12:35 PM 41.0°F 37.4°F 87% 29.74 in 10.0 miles NE 4.6 mph - N/A   Overcast
1:15 PM 42.8°F 37.4°F 81% 29.74 in 10.0 miles Calm Calm - N/A   Overcast
1:35 PM 44.6°F 37.4°F 76% 29.74 in 10.0 miles Calm Calm - N/A   Overcast
1:55 PM 44.6°F 37.4°F 76% 29.74 in 10.0 miles Calm Calm - N/A   Overcast
2:15 PM 44.6°F 37.4°F 76% 29.74 in 10.0 miles South 4.6 mph - N/A   Overcast
2:35 PM 44.6°F 37.4°F 76% 29.74 in 10.0 miles Calm Calm - N/A   Overcast
3:15 PM 44.6°F 39.2°F 81% 29.74 in 10.0 miles Calm Calm - N/A   Overcast
3:35 PM 44.6°F 39.2°F 81% 29.75 in 10.0 miles Calm Calm - N/A   Overcast
3:55 PM 44.6°F 39.2°F 81% 29.75 in 10.0 miles North - - N/A   Overcast
4:15 PM 44.6°F 39.2°F 81% 29.76 in 10.0 miles Calm Calm - N/A   Overcast
4:35 PM 44.6°F 39.2°F 81% 29.76 in 10.0 miles Calm Calm - N/A   Overcast
4:55 PM 44.6°F 39.2°F 81% 29.76 in 9.0 miles Calm Calm - N/A   Overcast
5:15 PM 44.6°F 39.2°F 81% 29.77 in 10.0 miles Calm Calm - N/A   Overcast
5:55 PM 41.0°F 39.2°F 93% 29.78 in 9.0 miles NE 5.8 mph - N/A   Overcast
6:15 PM 41.0°F 39.2°F 93% 29.79 in 10.0 miles NE 4.6 mph - N/A   Overcast
6:35 PM 41.0°F 37.4°F 87% 29.79 in 8.0 miles NE 4.6 mph - N/A   Overcast
6:55 PM 41.0°F 39.2°F 93% 29.80 in 5.0 miles ENE 3.5 mph - N/A Rain Light Rain
7:15 PM 39.2°F 39.2°F 100% 29.81 in 4.0 miles ENE 4.6 mph - N/A Rain Light Rain
7:35 PM 39.2°F 39.2°F 100% 29.82 in 4.0 miles NE 5.8 mph - N/A Rain Light Rain
7:55 PM 39.2°F 39.2°F 100% 29.82 in 5.0 miles NE 5.8 mph - N/A Rain Light Rain
8:15 PM 39.2°F 39.2°F 100% 29.83 in 5.0 miles NE 6.9 mph - N/A Rain Light Rain
8:35 PM 39.2°F 39.2°F 100% 29.84 in 6.0 miles ENE 4.6 mph - N/A Rain Light Rain
8:55 PM 39.2°F 39.2°F 100% 29.84 in 6.0 miles NNE 3.5 mph - N/A Rain Light Rain
9:15 PM 39.2°F 37.4°F 93% 29.85 in 7.0 miles SE 3.5 mph - N/A Rain Light Rain
9:35 PM 39.2°F 39.2°F 100% 29.86 in 7.0 miles East 3.5 mph - N/A Rain Light Rain
9:55 PM 39.2°F 37.4°F 93% 29.86 in 8.0 miles Calm Calm - N/A   Mostly Cloudy
10:15 PM 39.2°F 37.4°F 93% 29.87 in 7.0 miles Calm Calm - N/A Rain Light Rain
10:55 PM 39.2°F 37.4°F 93% 29.89 in 5.0 miles ENE 3.5 mph - N/A Rain Light Rain
11:15 PM 39.2°F 37.4°F 93% 29.90 in 5.0 miles Calm Calm - N/A   Overcast
11:55 PM 39.2°F 37.4°F 93% 29.91 in 3.0 miles Calm Calm - N/A Rain Light Rain
Moon Phase
Dec. 26 Dec. 28 Jan. 04 Jan. 11 Jan. 18
Sunrise:08:03 AM (PST) Moon Rise:03:21 PM (PST)
Sunset:04:21 PM (PST) Moon Set:06:29 AM (PST)

Copyright © 2014 The Weather Underground, Inc.